Regional Weather Roundup
Issued by NWS Cleveland, OH

Home | Current Version | Previous Version | Text Only | Print | Product List | Glossary Off
Versions: 1 2 3 4 5 6 7 8 9 10 11 12 13 14 15 16 17 18 19 20 21 22 23 24 25 26 27 28 29 30 31 32 33 34 35 36 37 38 39 40 41 42 43 44 45 46 47 48 49 50

000
ASUS41 KCLE 280200
RWRCLE
OHIO REGIONAL WEATHER ROUNDUP
NATIONAL WEATHER SERVICE WILMINGTON, OH
1000 PM EDT MON APR 27 2015

NOTE: "FAIR" INDICATES FEW OR NO CLOUDS BELOW 12,000 FEET WITH NO
SIGNIFICANT WEATHER AND/OR OBSTRUCTIONS TO VISIBILITY.

OHZ001>008-015>018-024>027-034-035-043-044-280300-
   NORTHWEST OHIO

CITY           SKY/WX    TMP DP  RH WIND       PRES   REMARKS
DEFIANCE       PTCLDY    46  34  62 CALM      30.09R
FINDLAY        CLEAR     45  34  65 NW3       30.07R
TOLEDO EXPRESS CLOUDY    45  34  65 CALM      30.08R
TOLEDO EXEC    CLEAR     46  32  58 N3        30.08R
LIMA           MOCLDY    45  35  68 N5        30.07R
$$

OHZ009>014-019>023-028>033-038-089-280300-
   NORTHEAST OHIO

CITY           SKY/WX    TMP DP  RH WIND       PRES   REMARKS
CLE-HOPKINS    MOCLDY    43  35  73 N9        30.08S
CLE-LAKEFRONT  CLOUDY    44  37  76 NW6       30.06R
CUY CO. ARPT   CLOUDY    45  39  81 N12       30.06R
LORAIN-ELYRIA  CLEAR     42  36  79 N8        30.07R
ASHTABULA      CLOUDY    43  36  76 W6        30.03R
AKRON-CANTON   CLOUDY    43  33  68 N7        30.04R
WOOSTER        NOT AVBL
MANSFIELD      CLOUDY    41  35  79 NW3       30.06R
YOUNGSTOWN     CLOUDY    41  35  79 NW9       30.02R
$$

OHZ042-051>053-060>062-070>072-077>081-280300-
  SOUTHWEST OHIO

CITY           SKY/WX    TMP DP  RH WIND       PRES   REMARKS
CINC-COVINGTON PTCLDY    52  37  56 N13       30.03R
CINC-LUNKEN    CLOUDY    51  38  60 NE13      30.05R
HAMILTON       CLOUDY    51  37  58 NE10      30.07R
DAYTON         NOT AVBL
WRIGHT-PAT AFB CLOUDY    48  37  65 N8        30.06R
DAYTON GENERAL CLOUDY    48  37  65 NE9       30.05R
WILMINGTON     CLOUDY    46  38  73 NE9       30.05R
$$

OHZ036-037-039>041-045>050-054>059-063>069-073>076-082>088-280300-
  CENTRAL AND SOUTHEAST OHIO

CITY           SKY/WX    TMP DP  RH WIND       PRES   REMARKS
COLUMBUS       MOCLDY    45  34  65 N6        30.05R
OSU AIRPORT    MOCLDY    44  34  67 N7        30.05R
BOLTON FIELD   NOT AVBL
RICKENBACK AFB NOT AVBL
NEWARK         FAIR      43  33  68 N3        30.05R
MARION         CLEAR     42  34  73 N3        30.07R
LANCASTER      MOCLDY    45  35  68 N6        30.06R
ZANESVILLE     PTCLDY    42  32  67 N3        30.05R
NEW PHILLY     CLOUDY    44  33  65 NW6       30.05R
$$


USA.gov is the U.S. government's official web portal to all federal, state and local government web resources and services.